www.pogodaiklimat.ru

Погода и климат >> Архив погоды >> Катар >> Hamad Int Airport


ПОГОДА в Hamad Int Airport

  • Прогноз погоды в Hamad Int Airport
  • Монитор погоды в Hamad Int Airport
  • Климат города

АРХИВ ПОГОДЫ в Hamad Int Airport

Время (UTC), дата Ветер
(напр.,м/с)
 
Видим.   Явления Облачность Т
(С)
Тd
(С)
f
(%)
Тe
(С)
Тes
(С)
Комфортность P
(гПа)
Po
(гПа)
Тmin
(С)
Tmax
(С)
R
(мм)
R24
(мм)
S
(см)
12 12.11 С 12 14 км {гроза, дождь} 5/3 900 м
[Sc Ac trans]
+26.5 +21.3 73 +34 +34 очень
душно
1015.4 1015.0 6
18 12.11 С 10 12 км {дождь} 5/1 1050 м
[Sc Ac trans Ci fib]
+25.0 +20.8 78 +31 +31 очень
душно
1016.3 1015.9 +26.9
00 13.11 С 13 14 км {дождь} 9/0
[Ac lent]
+24.5 +19.4 73 +30 +30 очень
душно
1014.7 1014.3 0.2
06 13.11 С 11 10 км 9/3 1050 м
[Cu Sc Ac As]
+25.6 +18.4 64 +30 +30 душно 1016.5 1016.1 +24.1
12 13.11 С 11 12 км 6/0
[Ac trans]
+25.9 +17.5 60 +30 +30 душно 1014.0 1013.6
18 13.11 С 7 14 км ясно +23.6 +16.9 66 +27 +27 жарко 1014.6 1014.2 +26.8
00 14.11 СЗ 4 10 км ясно +22.6 +16.0 66 +27 +27 душно 1012.9 1012.5
09 14.11 СВ 13 12 км 1/0
[Ac trans Ci fib]
+28.2 +17.4 52 +32 +32 душно 1012.5 1012.1
18 14.11 В 8 14 км ясно +26.5 +20.3 69 +33 +33 очень
душно
1012.4 1012.0 +28.7
06 15.11 ЮВ 11 14 км 4/0
[Ci fib]
+28.8 +22.0 67 +37 +37 очень
душно
1014.0 1013.6 +25.9
09 15.11 ЮВ 12 14 км 5/0
[Ci fib]
+29.3 +21.9 64 +38 +38 очень
душно
1013.4 1013.0
12 15.11 В 17 10 км 3/0
[Ci fib]
+28.9 +22.0 66 +37 +37 очень
душно
1011.1 1010.7
18 15.11 В 13 12 км 4/0
[Ci fib]
+27.6 +22.4 73 +36 +36 очень
душно
1013.2 1012.8 +29.7
00 16.11 ЮВ 12 12 км 5/0
[Ci fib]
+27.2 +23.5 80 +37 +37 очень
душно
1012.7 1012.3
06 16.11 ЮВ 8 10 км 8/0
[Ac trans Ci fib]
+28.5 +23.1 73 +38 +39 очень
душно
1016.0 1015.6 +26.9
12 16.11 Ю 7 10 км 9/0
[Ac trans Ci]
+29.5 +19.4 55 +35 +36 очень
душно
1014.3 1013.9
00 17.11 В 4 10 км 9/0
[Ac trans Ci sp]
+26.8 +23.1 80 +36 +36 очень
душно
1015.8 1015.4
06 17.11 СЗ 12 6000 м мгла 9/0
[Ac lent Ci sp]
+26.8 +23.1 80 +36 +36 очень
душно
1019.0 1018.6 +25.6
12 17.11 С 17 10 км 6/1 900 м
[Sc Ci fib]
+28.1 +21.1 66 +35 +35 очень
душно
1015.9 1015.5
18 17.11 С 17 10 км 4/0
[Ac trans Ci fib]
+24.8 +18.4 68 +29 +29 душно 1018.2 1017.8 +29.4
03 18.11 СЗ 13 10 км 1/0
[Ac trans]
+22.4 +16.6 70 +27 +27 душно 1017.3 1016.9
09 18.11 СЗ 16 9000 м 1/1 900 м
[Sc]
+27.4 +15.6 49 +30 +30 жарко 1016.8 1016.4
12 18.11 СЗ 17 12 км ясно +26.6 +14.0 46 +29 +29 жарко 1015.8 1015.4
15 18.11 СЗ 14 12 км ясно +24.1 +15.2 58 +27 +27 жарко 1016.4 1016.0
18 18.11 СЗ 12 12 км ясно +23.4 +15.1 60 +28 +28 душно 1017.4 1017.0 +27.9
21 18.11 СЗ 10 10 км ясно +22.4 +15.1 63 +26 +26 жарко 1016.6 1016.2
03 19.11 СЗ 11 10 км 1/0
[Ac trans]
+22.0 +15.7 67 +26 +26 душно 1016.8 1016.4

 

Местоположение метеостанции Hamad Int Airport (Катар): широта 25.27 долгота 51.61 высота над уровнем моря 10 м.

В архиве по умолчанию представлена погода в Hamad Int Airport за последнюю неделю. Архивные данные за месяц целиком и за предыдущие месяцы, начиная с января 2011 года, Вы можете получить, выбрав интересующий диапазон дат из раскрывающегося списка и нажав кнопку "Ввод!".


*Определитесь, кто Вы:
робот инопланетянин человек

Внимание! Время в таблицах - всемирное. Для получения местного времени необходимо прибавить поправку, которая в Hamad Int Airport равна 4 ч.

Смотрите также архив погоды в соседних городах и на ближайших метеорологических станциях:

Погода в Doha (Катар) (5 км)
Погода в Dukhan (Катар) (88 км)
Погода в Abu Samra (Катар) (98 км)
Погода в Bahrain (Бахрейн) (147 км)
Погода в Dhahran (Саудовская Аравия) (182 км)
Погода в Al Ahsa (Саудовская Аравия) (214 км)
Погода в King Fahd Int Airport (Саудовская Аравия) (222 км)
Погода в Kish Island (Иран) (274 км)
Погода в Bandar Deyr (Иран) (287 км)
Погода в Abu Dhabi Bateen Airport (ОАЭ) (302 км)

Пояснения к столбцам:

Ветер - указаны скорость ветра в м/с - средняя за 10 мин, порывы в срок и между сроками (в фигурных скобках) и направление, откуда дует ветер: С - северный, СВ - северо-восточный, В - восточный, ЮВ - юго-восточный, Ю - южный, ЮЗ - юго-западный, З - западный, СЗ - северо-западный.
Видимость - горизонтальная дальность видимости в метрах или километрах. При видимости от 1 до 10 км при отсутствии осадков обычно наблюдается дымка, при ухудшении видимости до 1 км и менее - туман. В сухую погоду видимость может ухудшаться дымом, пылью или мглою.
Явления - указаны атмосферные явления, наблюдавшиеся в срок или в последний час перед сроком; фигурными скобками обозначены явления, наблюдавшиеся между сроками (за 1-3 часа до срока); квадратными скобками обозначены град или гололедные отложения с указанием их диаметра в мм.
Облачность - указаны через наклонную черту общая и нижняя облачность в баллах и высота нижней границы облаков в метрах; квадратными скобками обозначены формы облаков: Ci - перистые, Cs - перисто-слоистые, Cc - перисто-кучевые, Ac - высококучевые, As - высокослоистые, Sc - слоисто-кучевые, Ns - слоисто-дождевые, Cu - кучевые, Cb - кучево-дождевые. Подробнее классификацию облаков см. в Атласе облаков (PDF).
T - Температура воздуха - температура, измеренная на высоте 2 м над землей.
Td - Температура точки росы - температура, при понижении до которой содержащийся в воздухе водяной пар достигнет насыщения.
f - Относительная влажность воздуха - влажноcть воздуха, измеренная на высоте 2 м над землей.
Te - Эффективная температура - температура, которую ощущает одетый по сезону человек в тени. Характеристика душности погоды. При расчете учитывается влияние влажности воздуха и скорости ветра на теплоощущения человека.
Tes - Эффективная температура на солнце - температура, которую ощущает человек, с поправкой на солнечный нагрев. Характеристика знойности погоды. Зависит от высоты солнца над горизонтом, облачности и скорости ветра. Ночью, в пасмурную погоду, а также при ветре 12 м/с и более поправка равна нулю.
P - Атмосферное давление - приведенное к уровню моря атмосферное давление.
Po - Атмосферное давление - измеренное на уровне метеостанции атмосферное давление.
Tmin - Минимальная температура - минимум температуры воздуха на высоте 2 м над землей.
Tmax - Максимальная температура - максимум температуры воздуха на высоте 2 м над землей.
R - Количество осадков - Количество выпавших осадков за период времени, мм. При наведении курсора мыши на число - период времени, за который выпало указанное количество осадков.
R24 - Количество осадков - Количество выпавших осадков за 24 часа, мм.
S - Снежный покров - Высота снежного покрова, см. При наведении курсора мыши на число - состояние снежного покрова и степень покрытия местности в баллах.